sat.trackr.live / text

‹ back to catalog

STARLINK-3859

NORAD 52470 · 2022-049V

PAYLOAD ACTIVE UNKNOWN

§ Identity

Operator
Country
US
Launch date
2022-05-06
Launch site
AFETR
Launch vehicle
Mass (kg)
RCS (m²)

Purposes: comms

External: N2YO · Heavens-Above · Gunter

§ Orbital elements

Epoch: 2026-09-19T14:32:42.142848Z

Period
93.85 min
Inclination
53.1602°
Eccentricity
0.0001319
Mean motion
15.34392059 rev/d
Perigee alt
461.8 km
Apogee alt
463.6 km
Semi-major
6,840.9 km
B*
1.1778e-5
RAAN
257.5498°
Arg perigee
86.2445°
Mean anomaly
273.8708°
Rev number
24,167

§ Raw data

STARLINK-38591 52470U 22049V   26262.60604332  .00000022  00000+0  11778-4 0  99982 52470  53.1602 257.5498 0001319  86.2445 273.8708 15.34392059241676

JSON: /api/v1/satellites/52470 · /tle

For live sub-satellite position, see the globe view (requires WebGL).

§ Visibility from observer

Set your observer location to see the next 7 days of passes ≥ 10°. The values pass through the URL so the page stays shareable.

No JS? Fill the form by hand. The geolocation button needs JavaScript.